Benton Harbor, MI

7:10 AM EST on December 10, 2016 (GMT -0500)
Southwest Michigan Regional

Weather History for KBEH - February, 2014

Change the Weather History Date:

Thursday, February 13, 2014

  Actual Average Record
Temperature  
Mean Temperature 19 °F -  
Max Temperature 30 °F 34 °F 56 °F (1984)
Min Temperature 8 °F 18 °F -8 °F (1955)
Degree Days  
Heating Degree Days 46    
Moisture  
Dew Point 13 °F    
Average Humidity 70    
Maximum Humidity 86    
Minimum Humidity 43    
Precipitation  
Precipitation 0.00 in - - ()
Sea Level Pressure  
Sea Level Pressure 29.75 in    
Wind  
Wind Speed 8 mph (SSE)    
Max Wind Speed 18 mph    
Max Gust Speed 26 mph    
Visibility 6 miles    
Events Fog , Snow    
Averages and records for this station are not official NWS values.
T = Trace of Precipitation, MM = Missing Value Source: NWS Daily Summary

Daily Weather History Graph

Daily Weather History Graph

Search for Another Location

Airport or City:

Trip Planner

Search our weather history database for the weather conditions in past years. The results will help you decide how hot, cold, wet, or windy it might be!

Date:

Astronomy

Feb. 13, 2014 Rise Set
Actual Time 7:44 AM EST 6:15 PM EST
Civil Twilight 7:15 AM EST 6:44 PM EST
Nautical Twilight 6:42 AM EST 7:17 PM EST
Astronomical Twilight 6:10 AM EST 7:50 PM EST
Moon 5:23 PM EST (2/13) 6:37 AM EST (2/13)
Length of Visible Light 11h 29m
Length of Day
10h 31m
Waxing Gibbous, 98% of the Moon is Illuminated
Feb 13
Waxing Gibbous
Feb 14
Full
Feb 22
Last Quarter
Mar 1
New
Mar 8
First Quarter

Hourly Weather History & Observations

Time (EST) Temp. Windchill Dew Point Humidity Pressure Visibility Wind Dir Wind Speed Gust Speed Precip Events Conditions
12:53 AM 18.0 °F 9.8 °F 7.0 °F 62% 30.06 in 8.0 mi SSE 5.8 mph - N/A   Overcast
1:53 AM 18.0 °F 11.1 °F 8.1 °F 65% 30.05 in 7.0 mi SE 4.6 mph - N/A   Overcast
2:53 AM 18.0 °F 11.1 °F 8.1 °F 65% 30.05 in 8.0 mi SSE 4.6 mph - N/A   Overcast
3:53 AM 17.1 °F 5.8 °F 7.0 °F 65% 30.03 in 8.0 mi SE 9.2 mph - N/A   Overcast
4:53 AM 15.1 °F 7.7 °F 6.1 °F 68% 30.01 in 8.0 mi SE 4.6 mph - N/A   Overcast
5:53 AM 12.0 °F - 3.9 °F 70% 30.01 in 7.0 mi Calm Calm - N/A   Scattered Clouds
6:53 AM 10.9 °F 2.9 °F 3.9 °F 73% 29.97 in 6.0 mi SE 4.6 mph - N/A   Haze
7:53 AM 8.1 °F 1.4 °F 3.9 °F 83% 29.95 in 4.0 mi ESE 3.5 mph - N/A   Clear
8:53 AM 10.9 °F 2.9 °F 3.9 °F 73% 29.94 in 5.0 mi SE 4.6 mph - N/A   Haze
9:53 AM 16.0 °F 5.3 °F 6.1 °F 65% 29.90 in 6.0 mi SE 8.1 mph - N/A   Haze
10:53 AM 18.0 °F 5.4 °F 7.0 °F 62% 29.88 in 6.0 mi SSE 11.5 mph - N/A   Haze
11:53 AM 21.9 °F 10.4 °F 9.0 °F 58% 29.84 in 6.0 mi SE 11.5 mph - N/A   Haze
12:53 PM 25.0 °F 14.2 °F 9.0 °F 51% 29.81 in 8.0 mi SSE 11.5 mph - N/A   Clear
1:53 PM 28.0 °F 17.0 °F 8.1 °F 43% 29.75 in 10.0 mi SSE 13.8 mph 20.7 mph N/A   Mostly Cloudy
2:53 PM 27.0 °F 16.7 °F 9.0 °F 47% 29.72 in 9.0 mi South 11.5 mph - N/A   Overcast
3:15 PM 24.8 °F 14.0 °F 12.2 °F 59% 29.69 in 2.5 mi SSW 11.5 mph 20.7 mph 0.00 in Snow Light Snow
3:17 PM 24.8 °F 13.4 °F 15.8 °F 69% 29.69 in 1.2 mi South 12.7 mph 20.7 mph 0.00 in Snow Light Snow
3:22 PM 24.8 °F 14.6 °F 17.6 °F 74% 29.68 in 0.5 mi South 10.4 mph - 0.00 in Snow Snow
3:36 PM 23.0 °F 13.9 °F 19.4 °F 86% 29.67 in 1.0 mi South 8.1 mph - 0.00 in Snow Light Snow
3:46 PM 23.0 °F 12.4 °F 19.4 °F 86% 29.66 in 0.5 mi South 10.4 mph - 0.00 in Fog , Snow Light Snow
3:53 PM 23.0 °F 10.6 °F 19.0 °F 85% 29.68 in 0.5 mi South 13.8 mph - 0.00 in Fog , Snow Snow
4:02 PM 23.0 °F 11.1 °F 19.4 °F 86% 29.64 in 1.0 mi SSE 12.7 mph - 0.00 in Snow Light Snow
4:05 PM 23.0 °F 12.4 °F 19.4 °F 86% 29.64 in 1.8 mi SSE 10.4 mph - 0.00 in Snow Light Snow
4:08 PM 23.0 °F 12.4 °F 19.4 °F 86% 29.64 in 3.0 mi SSE 10.4 mph - 0.00 in Snow Light Snow
4:53 PM 25.0 °F 13.6 °F 19.0 °F 78% 29.63 in 7.0 mi SSE 12.7 mph - 0.00 in   Overcast
5:53 PM 25.0 °F 16.3 °F 17.1 °F 72% 29.62 in 7.0 mi SSE 8.1 mph - N/A   Mostly Cloudy
6:53 PM 26.1 °F 16.8 °F 14.0 °F 60% 29.61 in 10.0 mi South 9.2 mph - N/A   Overcast
7:18 PM 26.6 °F 16.2 °F 12.2 °F 55% 29.57 in 10.0 mi South 11.5 mph - N/A   Overcast
7:53 PM 27.0 °F 18.0 °F 14.0 °F 58% 29.59 in 10.0 mi SSW 9.2 mph - N/A   Overcast
8:53 PM 27.0 °F 19.5 °F 17.1 °F 66% 29.56 in 9.0 mi South 6.9 mph - N/A   Overcast
9:53 PM 28.9 °F 22.8 °F 19.9 °F 69% 29.53 in 9.0 mi South 5.8 mph - N/A   Overcast
10:53 PM 30.9 °F 20.7 °F 24.1 °F 76% 29.51 in 8.0 mi SW 13.8 mph 20.7 mph N/A   Overcast
11:06 PM 30.2 °F 19.3 °F 24.8 °F 80% 29.48 in 7.0 mi WSW 15.0 mph - N/A   Overcast
11:53 PM 26.1 °F 12.7 °F 21.9 °F 84% 29.52 in 8.0 mi West 18.4 mph 26.5 mph N/A   Overcast